Погода в Булынине

Россия / Псковская область     56°16′58″N   30°31′36″E
В апреле 2022 года жителям России запретили посещать сайт meteo.paraplan.net по решению Генеральной прокуратуры. Аудитория сайта уменьшилась в 10 раз. Владельцы сайта не видят смысла в поддержке погодного сервера в таких условиях. Сайт будет закрыт в октябре.
темп.,
°C
ветер,
м/с
пор.,
м/с
влажн.,
%
обл.,
%
осадки,
мм/ч
давл.,
гПа
погр.,
м
3 октября, пн
пн300:00+6с61194100 1.4 1002661
03:00+6с81595100 6.1 998777
06:00+6с91795100 6.3 994909
09:00+6ссв91795100 17.1 9911102
12:00+7ссв71495100 5.1 990755
15:00+7с61297100 8.6 989520
18:00+8в4893100 1.5 990577
21:00+6всв3890100 1.6 992510
4 октября, вт
вт400:00+6св3793100 0.2 992482
03:00+4всв3597100 0.5 994694
06:00+4ссв2395100 0.4 995840
09:00+4ссз1395100 0.9 997858
12:00+4зсз1295100 1.1 999845
15:00+5зсз2393100 1.6 1001848
18:00+5зсз2495100 0.9 1003580
21:00+5сз2596100 1.8 1005747
5 октября, ср
ср500:00+5сз2694100 0.3 1007681
03:00+4сз269394 0.6 1009454
06:00+5з2696100 0.3 1011259
09:00+6з4994100 1.1 1011650
12:00+7з4890100 0.1 1013567
15:00+9з3781100 0.1 1014898
18:00+8зюз3795100 0.3 1015331
21:00+8ююз3898100 0.5 1015339
6 октября, чт
чт600:00+9юз4109791 0.3 1015389
03:00+10юз41096100 0.5 1014445
06:00+10юз4109692 0.2 1014427
09:00+11юз4119321 0.2 1013439
12:00+14юз511760 0.0 1013646
15:00+16зюз612710 0.0 1012975
18:00+14з61280100 0.1 1014944
21:00+11з513810 0.1 1016799
7 октября, пт
пт700:00+10з613800 0.0 1018736
03:00+8зюз6138922 0.0 1019617
06:00+10зюз61381100 0.1 10191191
09:00+11з61271100 0.1 10191391
12:00+12з5116998 0.0 10211462
15:00+14зюз510615 0.1 10211412
18:00+12зюз511725 0.0 1021549
21:00+10юз5127851 0.0 1021535